Voltar ao catálogo

FENGYUN 1C DEB

AtivoSSO
NORAD 30092·DEBRIS·🇨🇳 China

Lançado May 10, 1999 de Taiyuan Satellite Launch Center

Loading…

Próximas Passagens (próximas 24 horas)

TLE

AtualizadoSource: Space-Track

Época: Sep 14, 2026, 01:37 UTC

1 30092U 99025QV  26257.06765090  .00000903  00000-0  29124-3 0  9997
2 30092  98.9245  92.7366 0082575 156.0145 327.6506 14.39880354 27020

Acompanhe FENGYUN 1C DEB em tempo real com AllMySat

Download on the App Store